KLM39F EHAM-EKCH

Flight info

Callsign KLM39F
Flight time 0h 59m
Altitude 37000
Route ANDIK N873 JUIST DCT DOSUR P729 TUDLO
Aircraft A21N/M-SDE2E3FGHIRWXY/LB1

Departure

Time 2026-04-30 18:59
Airport Amsterdam Airport Schiphol (EHAM)

Arrival

Time 2026-04-30 19:59
Airport Copenhagen Kastrup Airport (EKCH)
Time Latitude Longitude Altitude Speed Heading
2026-04-30 18:20 52.30892 4.77367 13 ft 0 kts
2026-04-30 18:21 52.30895 4.77367 13 ft 0 kts
2026-04-30 18:46 52.30884 4.77366 12 ft 4 kts 358°
2026-04-30 18:47 52.30857 4.77370 16 ft 4 kts
2026-04-30 18:47 52.30844 4.77358 16 ft 4 kts 68°
2026-04-30 18:47 52.30841 4.77334 15 ft 1 kts 79°
2026-04-30 18:50 52.30841 4.77378 15 ft 9 kts 94°
2026-04-30 18:50 52.30836 4.77495 15 ft 11 kts 94°
2026-04-30 18:50 52.30852 4.77594 17 ft 9 kts 36°
2026-04-30 18:50 52.30945 4.77616 15 ft 17 kts
2026-04-30 18:51 52.31069 4.77626 16 ft 19 kts
2026-04-30 18:51 52.31210 4.77640 16 ft 22 kts
2026-04-30 18:51 52.31365 4.77653 19 ft 22 kts
2026-04-30 18:51 52.31515 4.77563 15 ft 26 kts 316°
2026-04-30 18:52 52.31579 4.77295 13 ft 27 kts 266°
2026-04-30 18:52 52.31568 4.76979 14 ft 28 kts 266°
2026-04-30 18:52 52.31557 4.76661 16 ft 27 kts 266°
2026-04-30 18:52 52.31547 4.76378 21 ft 25 kts 266°
2026-04-30 18:53 52.31537 4.76080 21 ft 27 kts 266°
2026-04-30 18:53 52.31526 4.75762 15 ft 29 kts 267°
2026-04-30 18:53 52.31515 4.75438 15 ft 27 kts 265°
2026-04-30 18:53 52.31503 4.75131 14 ft 23 kts 266°
2026-04-30 18:54 52.31495 4.74917 17 ft 16 kts 266°
2026-04-30 18:54 52.31489 4.74748 17 ft 11 kts 270°
2026-04-30 18:54 52.31510 4.74667 19 ft 4 kts 327°
2026-04-30 18:54 52.31532 4.74662 20 ft 3 kts 358°
2026-04-30 18:55 52.31538 4.74662 20 ft 0 kts 358°
2026-04-30 18:56 52.31539 4.74662 20 ft 1 kts 358°
2026-04-30 18:56 52.31562 4.74661 21 ft 6 kts 358°
2026-04-30 18:57 52.31660 4.74707 22 ft 9 kts 57°
2026-04-30 18:57 52.31670 4.74788 21 ft 1 kts 86°
2026-04-30 18:58 52.31679 4.75037 16 ft 54 kts 86°
2026-04-30 18:58 52.31712 4.76003 20 ft 121 kts 88°
2026-04-30 18:58 52.31773 4.77707 184 ft 163 kts 86°
2026-04-30 18:59 52.31938 4.81497 1467 ft 170 kts 89°
2026-04-30 19:00 52.32331 4.88345 2992 ft 235 kts 85°
2026-04-30 19:00 52.32870 4.90960 3865 ft 254 kts 64°
2026-04-30 19:00 52.35945 4.94092 5688 ft 282 kts 12°
2026-04-30 19:01 52.39962 4.94190 6311 ft 292 kts
2026-04-30 19:01 52.41996 4.94088 6318 ft 292 kts
2026-04-30 19:02 52.46119 4.93890 7501 ft 298 kts
2026-04-30 19:02 52.50260 4.93720 9800 ft 299 kts
2026-04-30 19:03 52.54554 4.93683 11121 ft 327 kts 15°
2026-04-30 19:03 52.58300 4.98014 12128 ft 347 kts 53°
2026-04-30 19:04 52.61481 5.04147 13847 ft 356 kts 53°
2026-04-30 19:04 52.64810 5.10356 15444 ft 366 kts 52°
2026-04-30 19:05 52.68269 5.16690 16947 ft 377 kts 52°
2026-04-30 19:05 52.71808 5.23145 18475 ft 385 kts 51°
2026-04-30 19:06 52.75371 5.29887 19777 ft 392 kts 54°
2026-04-30 19:06 52.77076 5.33423 20413 ft 395 kts 55°
2026-04-30 19:06 52.80460 5.40693 21653 ft 403 kts 55°
2026-04-30 19:07 52.83979 5.47944 22894 ft 411 kts 52°
2026-04-30 19:07 52.85841 5.51569 23527 ft 414 kts 52°
2026-04-30 19:08 52.89618 5.58870 24510 ft 422 kts 51°
2026-04-30 19:08 52.93469 5.66298 25482 ft 427 kts 51°
2026-04-30 19:08 52.95399 5.70026 25947 ft 430 kts 51°
2026-04-30 19:09 52.99317 5.77609 26869 ft 435 kts 51°
2026-04-30 19:09 53.01297 5.81447 27298 ft 437 kts 51°
2026-04-30 19:09 53.03281 5.85301 27722 ft 440 kts 50°
2026-04-30 19:10 53.07274 5.93074 28531 ft 445 kts 51°
2026-04-30 19:10 53.11287 6.00912 29288 ft 450 kts 50°
2026-04-30 19:11 53.13316 6.04883 29704 ft 450 kts 51°
2026-04-30 19:11 53.17360 6.12817 30739 ft 447 kts 50°
2026-04-30 19:11 53.19368 6.16768 31222 ft 444 kts 50°
2026-04-30 19:12 53.21358 6.20688 31708 ft 441 kts 50°
2026-04-30 19:12 53.23338 6.24594 32068 ft 441 kts 50°
2026-04-30 19:12 53.25322 6.28515 32452 ft 440 kts 50°
2026-04-30 19:13 53.29266 6.36327 33247 ft 438 kts 50°
2026-04-30 19:13 53.33160 6.44065 33980 ft 436 kts 50°
2026-04-30 19:13 53.35103 6.47935 34310 ft 436 kts 50°
2026-04-30 19:14 53.37056 6.51832 34648 ft 434 kts 50°
2026-04-30 19:14 53.39021 6.55757 34916 ft 434 kts 50°
2026-04-30 19:14 53.40934 6.59586 35201 ft 433 kts 50°
2026-04-30 19:14 53.42857 6.63441 35462 ft 433 kts 50°
2026-04-30 19:15 53.44793 6.67327 35722 ft 433 kts 50°
2026-04-30 19:15 53.48611 6.75010 36227 ft 432 kts 50°
2026-04-30 19:15 53.50524 6.78869 36538 ft 430 kts 50°
2026-04-30 19:16 53.52440 6.82739 36786 ft 429 kts 50°
2026-04-30 19:16 53.54346 6.86593 37002 ft 429 kts 50°
2026-04-30 19:16 53.58171 6.94351 37339 ft 431 kts 50°
2026-04-30 19:17 53.60096 6.98262 37396 ft 433 kts 49°
2026-04-30 19:17 53.65782 7.09854 37421 ft 431 kts 50°
2026-04-30 19:18 53.71501 7.21570 37419 ft 431 kts 50°
2026-04-30 19:19 53.75303 7.29388 37422 ft 431 kts 50°
2026-04-30 19:19 53.81002 7.41155 37418 ft 431 kts 50°
2026-04-30 19:20 53.84784 7.48995 37433 ft 431 kts 50°
2026-04-30 19:21 53.90395 7.60671 37433 ft 431 kts 50°
2026-04-30 19:22 53.97963 7.76507 37442 ft 432 kts 50°
2026-04-30 19:23 54.09260 8.00336 37452 ft 432 kts 50°
2026-04-30 19:24 54.14893 8.12302 37448 ft 431 kts 50°
2026-04-30 19:25 54.23638 8.30997 37446 ft 432 kts 50°
2026-04-30 19:26 54.31125 8.47115 37439 ft 432 kts 50°
2026-04-30 19:27 54.36675 8.59131 37445 ft 431 kts 50°
2026-04-30 19:28 54.42244 8.71247 37441 ft 431 kts 50°
2026-04-30 19:28 54.45954 8.79352 36916 ft 431 kts 50°
2026-04-30 19:29 54.49627 8.87402 36340 ft 434 kts 50°
2026-04-30 19:29 54.51489 8.91493 36072 ft 434 kts 50°
2026-04-30 19:30 54.57073 9.03801 35248 ft 435 kts 50°
2026-04-30 19:30 54.60799 9.12050 34720 ft 436 kts 50°
2026-04-30 19:31 54.64531 9.20339 34152 ft 437 kts 50°
2026-04-30 19:31 54.66391 9.24480 33854 ft 437 kts 50°
2026-04-30 19:31 54.70098 9.32755 33253 ft 437 kts 50°
2026-04-30 19:32 54.71956 9.36912 32957 ft 438 kts 50°
2026-04-30 19:32 54.73816 9.41081 32673 ft 438 kts 50°
2026-04-30 19:32 54.75680 9.45268 32371 ft 438 kts 50°
2026-04-30 19:32 54.77539 9.49449 32025 ft 439 kts 50°
2026-04-30 19:33 54.79401 9.53642 31707 ft 439 kts 50°
2026-04-30 19:33 54.81264 9.57847 31377 ft 440 kts 50°
2026-04-30 19:33 54.83132 9.62069 31041 ft 440 kts 50°
2026-04-30 19:33 54.84989 9.66275 30614 ft 440 kts 50°
2026-04-30 19:34 54.86853 9.70504 30119 ft 441 kts 50°
2026-04-30 19:34 54.88714 9.74732 29592 ft 442 kts 50°
2026-04-30 19:34 54.92451 9.83244 28556 ft 440 kts 50°
2026-04-30 19:35 54.94300 9.87470 28099 ft 436 kts 50°
2026-04-30 19:35 54.96100 9.91587 27609 ft 432 kts 50°
2026-04-30 19:35 54.97908 9.95732 27152 ft 427 kts 51°
2026-04-30 19:35 54.99669 9.99776 26702 ft 424 kts 51°
2026-04-30 19:36 55.01455 10.03882 26246 ft 421 kts 51°
2026-04-30 19:36 55.03212 10.07927 25800 ft 418 kts 51°
2026-04-30 19:36 55.06692 10.15963 24943 ft 412 kts 51°
2026-04-30 19:37 55.08414 10.19948 24492 ft 409 kts 51°
2026-04-30 19:37 55.10121 10.23904 24086 ft 406 kts 51°
2026-04-30 19:37 55.11815 10.27839 23599 ft 404 kts 51°
2026-04-30 19:37 55.13425 10.31583 23132 ft 402 kts 51°
2026-04-30 19:38 55.15098 10.35478 22641 ft 399 kts 51°
2026-04-30 19:38 55.16756 10.39347 22172 ft 396 kts 52°
2026-04-30 19:38 55.18397 10.43182 21722 ft 393 kts 52°
2026-04-30 19:38 55.20002 10.46937 21296 ft 390 kts 52°
2026-04-30 19:39 55.21613 10.50714 20871 ft 388 kts 52°
2026-04-30 19:39 55.23229 10.54505 20436 ft 385 kts 52°
2026-04-30 19:39 55.24824 10.58255 20032 ft 383 kts 52°
2026-04-30 19:39 55.26369 10.61924 19635 ft 381 kts 54°
2026-04-30 19:40 55.27678 10.65953 19223 ft 381 kts 65°
2026-04-30 19:40 55.28559 10.70264 18823 ft 379 kts 70°
2026-04-30 19:40 55.29330 10.74695 18376 ft 378 kts 71°
2026-04-30 19:40 55.30064 10.79043 17940 ft 375 kts 72°
2026-04-30 19:41 55.30798 10.83400 17497 ft 372 kts 72°
2026-04-30 19:41 55.31542 10.87800 17051 ft 370 kts 72°
2026-04-30 19:41 55.32271 10.92105 16615 ft 367 kts 72°
2026-04-30 19:41 55.32988 10.96353 16195 ft 365 kts 72°
2026-04-30 19:42 55.33701 11.00616 15778 ft 363 kts 72°
2026-04-30 19:42 55.34406 11.04856 15369 ft 360 kts 73°
2026-04-30 19:42 55.35106 11.09070 14951 ft 358 kts 73°
2026-04-30 19:42 55.35799 11.13254 14548 ft 355 kts 73°
2026-04-30 19:43 55.36485 11.17407 14137 ft 351 kts 73°
2026-04-30 19:43 55.37162 11.21508 13689 ft 344 kts 73°
2026-04-30 19:43 55.37785 11.25302 13286 ft 331 kts 73°
2026-04-30 19:44 55.39022 11.32845 12421 ft 313 kts 73°
2026-04-30 19:44 55.39616 11.36481 12001 ft 306 kts 73°
2026-04-30 19:44 55.40196 11.40034 11586 ft 299 kts 73°
2026-04-30 19:44 55.40752 11.43445 11194 ft 294 kts 73°
2026-04-30 19:45 55.41316 11.46914 10773 ft 289 kts 73°
2026-04-30 19:45 55.41865 11.50296 10369 ft 284 kts 73°
2026-04-30 19:45 55.42400 11.53602 9932 ft 281 kts 73°
2026-04-30 19:45 55.42932 11.56893 9492 ft 279 kts 73°
2026-04-30 19:46 55.43461 11.60169 9060 ft 277 kts 73°
2026-04-30 19:46 55.44083 11.63189 8647 ft 274 kts 63°
2026-04-30 19:46 55.45069 11.66088 8455 ft 272 kts 56°
2026-04-30 19:46 55.46123 11.68828 8432 ft 272 kts 56°
2026-04-30 19:47 55.47185 11.71546 8433 ft 273 kts 56°
2026-04-30 19:47 55.47911 11.73407 8433 ft 273 kts 56°
2026-04-30 19:47 55.49309 11.77002 8434 ft 271 kts 55°
2026-04-30 19:47 55.50374 11.79750 8433 ft 271 kts 55°
2026-04-30 19:48 55.51423 11.82510 8431 ft 271 kts 59°
2026-04-30 19:48 55.52010 11.85629 8277 ft 271 kts 84°
2026-04-30 19:48 55.51758 11.88829 7871 ft 270 kts 110°
2026-04-30 19:48 55.50693 11.91551 7440 ft 271 kts 133°
2026-04-30 19:49 55.49264 11.93703 7012 ft 270 kts 139°
2026-04-30 19:49 55.46348 11.97661 6118 ft 265 kts 140°
2026-04-30 19:49 55.44918 11.99605 5670 ft 255 kts 140°
2026-04-30 19:50 55.43674 12.01711 5216 ft 243 kts 123°
2026-04-30 19:50 55.42822 12.04220 4746 ft 235 kts 116°
2026-04-30 19:50 55.42082 12.06769 4292 ft 233 kts 115°
2026-04-30 19:50 55.41364 12.09295 3933 ft 228 kts 115°
2026-04-30 19:51 55.40676 12.11726 3583 ft 220 kts 115°
2026-04-30 19:51 55.40004 12.14096 3241 ft 212 kts 115°
2026-04-30 19:51 55.39509 12.16446 3011 ft 197 kts 92°
2026-04-30 19:51 55.39666 12.18761 2999 ft 193 kts 73°
2026-04-30 19:52 55.40044 12.21059 2988 ft 193 kts 70°
2026-04-30 19:52 55.40438 12.23282 2997 ft 193 kts 70°
2026-04-30 19:52 55.40840 12.25533 2995 ft 193 kts 70°
2026-04-30 19:52 55.41242 12.27782 2990 ft 193 kts 70°
2026-04-30 19:53 55.41641 12.30033 2989 ft 191 kts 70°
2026-04-30 19:53 55.42029 12.32266 2990 ft 191 kts 70°
2026-04-30 19:53 55.42587 12.34354 2988 ft 188 kts 53°
2026-04-30 19:53 55.43443 12.36072 2983 ft 186 kts 41°
2026-04-30 19:54 55.44411 12.37573 2992 ft 186 kts 39°
2026-04-30 19:54 55.45390 12.39061 2988 ft 186 kts 39°
2026-04-30 19:54 55.46367 12.40553 2991 ft 186 kts 39°
2026-04-30 19:54 55.47343 12.42047 2989 ft 186 kts 39°
2026-04-30 19:55 55.48318 12.43546 2909 ft 185 kts 39°
2026-04-30 19:55 55.49282 12.45033 2670 ft 182 kts 38°
2026-04-30 19:55 55.50227 12.46488 2406 ft 179 kts 37°
2026-04-30 19:55 55.51164 12.47928 2158 ft 178 kts 37°
2026-04-30 19:56 55.52099 12.49367 1909 ft 178 kts 37°
2026-04-30 19:56 55.53031 12.50802 1666 ft 177 kts 37°
2026-04-30 19:56 55.53936 12.52198 1430 ft 165 kts 37°
2026-04-30 19:56 55.54757 12.53466 1223 ft 150 kts 37°
2026-04-30 19:57 55.55506 12.54618 1028 ft 142 kts 37°
2026-04-30 19:57 55.56246 12.55756 840 ft 140 kts 38°
2026-04-30 19:57 55.56983 12.56886 655 ft 140 kts 38°
2026-04-30 19:57 55.57704 12.58038 454 ft 140 kts 40°
2026-04-30 19:58 55.58428 12.59179 245 ft 139 kts 38°
2026-04-30 19:58 55.59163 12.60282 80 ft 138 kts 38°
2026-04-30 19:58 55.59853 12.61331 27 ft 112 kts 38°
2026-04-30 19:58 55.60303 12.62028 22 ft 60 kts 40°
2026-04-30 19:59 55.60501 12.62274 27 ft 18 kts 25°
2026-04-30 19:59 55.60613 12.62336 28 ft 16 kts 13°
2026-04-30 19:59 55.60828 12.62458 30 ft 15 kts 41°
2026-04-30 20:00 55.60915 12.62595 22 ft 19 kts 41°
2026-04-30 20:00 55.61018 12.62753 22 ft 20 kts 41°
2026-04-30 20:00 55.61119 12.62908 24 ft 18 kts 41°
2026-04-30 20:00 55.61213 12.63053 24 ft 19 kts 41°
2026-04-30 20:01 55.61419 12.63371 25 ft 22 kts 41°
2026-04-30 20:01 55.61542 12.63560 20 ft 25 kts 41°
2026-04-30 20:01 55.61673 12.63760 21 ft 25 kts 40°
2026-04-30 20:02 55.61888 12.64087 28 ft 15 kts 30°
2026-04-30 20:02 55.61987 12.64169 23 ft 17 kts 25°
2026-04-30 20:03 55.62235 12.64376 20 ft 21 kts 25°
2026-04-30 20:03 55.62350 12.64433 22 ft 17 kts 14°
2026-04-30 20:03 55.62464 12.64483 23 ft 15 kts 10°
2026-04-30 20:03 55.62518 12.64419 26 ft 9 kts 302°
2026-04-30 20:04 55.62551 12.64330 28 ft 9 kts 303°
2026-04-30 20:04 55.62588 12.64229 31 ft 12 kts 303°
2026-04-30 20:04 55.62634 12.64101 27 ft 11 kts 303°
2026-04-30 20:05 55.62701 12.64070 27 ft 6 kts 36°
2026-04-30 20:05 55.62721 12.64094 27 ft 0 kts 32°